When you browse on this site, cookies collect data to enhance your experience and personalize the content and advertising you see.
Visit our Privacy Policy to learn more. By continuing to use the site, you agree to this use of cookies and data.
  • In Spain
  • List of Countries
  • For 7 days
  • Water Temperature
  • Weather Map
  • Weather Widgets
  • user-avatar
    Login

    Hourly Weather Kasama

    Today, 18 February, Tuesday

    Time Temperature Precipitation Wind Pressure Humidity
    00:00 +29°C° 0 mm 3 mps 720 mmHg 17%
    01:00 +29°C° 0 mm 3 mps 720 mmHg 18%
    02:00 +28°C° 0 mm 3 mps 720 mmHg 19%
    03:00 +27°C° 0 mm 3 mps 720 mmHg 20%
    04:00 +27°C° 0 mm 3 mps 720 mmHg 20%
    05:00 +26°C° 0 mm 3 mps 720 mmHg 20%
    06:00 +27°C° 0 mm 4 mps 721 mmHg 19%
    07:00 +28°C° 0 mm 5 mps 722 mmHg 18%
    08:00 +29°C° 0 mm 6 mps 723 mmHg 17%
    09:00 +32°C° 0 mm 6 mps 723 mmHg 15%
    10:00 +35°C° 0 mm 6 mps 723 mmHg 12%
    11:00 +38°C° 0 mm 6 mps 723 mmHg 10%
    12:00 +40°C° 0 mm 5 mps 722 mmHg 10%
    13:00 +41°C° 0 mm 5 mps 721 mmHg 9%
    14:00 +43°C° 0 mm 4 mps 720 mmHg 8%
    15:00 +43°C° 0 mm 4 mps 720 mmHg 9%
    16:00 +42°C° 0 mm 3 mps 719 mmHg 9%
    17:00 +42°C° 0 mm 3 mps 719 mmHg 9%
    18:00 +38°C° 0 mm 3 mps 719 mmHg 11%
    19:00 +36°C° 0 mm 3 mps 720 mmHg 13%
    20:00 +32°C° 0 mm 2 mps 720 mmHg 15%
    21:00 +33°C° 0 mm 3 mps 720 mmHg 14%
    22:00 +33°C° 0 mm 4 mps 721 mmHg 14%
    23:00 +32°C° 0 mm 4 mps 721 mmHg 14%

    Tomorrow, 19 February, Wednesday

    Time Temperature Precipitation Wind Pressure Humidity
    00:00 +32°C° 0 mm 4 mps 721 mmHg 14%
    01:00 +30°C° 0 mm 4 mps 720 mmHg 14%
    02:00 +29°C° 0 mm 3 mps 720 mmHg 15%
    03:00 +28°C° 0 mm 3 mps 720 mmHg 15%
    04:00 +27°C° 0 mm 3 mps 720 mmHg 15%
    05:00 +27°C° 0 mm 3 mps 720 mmHg 15%
    06:00 +28°C° 0 mm 4 mps 721 mmHg 14%
    07:00 +29°C° 0 mm 5 mps 722 mmHg 13%
    08:00 +30°C° 0 mm 6 mps 722 mmHg 12%
    09:00 +33°C° 0 mm 6 mps 722 mmHg 11%
    10:00 +36°C° 0 mm 6 mps 722 mmHg 9%
    11:00 +40°C° 0 mm 6 mps 722 mmHg 8%
    12:00 +41°C° 0 mm 5 mps 721 mmHg 8%
    13:00 +42°C° 0 mm 5 mps 720 mmHg 8%
    14:00 +44°C° 0 mm 4 mps 720 mmHg 8%
    15:00 +43°C° 0 mm 4 mps 719 mmHg 9%
    16:00 +43°C° 0 mm 4 mps 719 mmHg 9%
    17:00 +42°C° 0 mm 4 mps 719 mmHg 10%
    18:00 +40°C° 0 mm 4 mps 719 mmHg 11%
    19:00 +36°C° 0 mm 3 mps 719 mmHg 12%
    20:00 +34°C° 0 mm 3 mps 719 mmHg 14%
    21:00 +33°C° 0 mm 4 mps 720 mmHg 14%
    22:00 +33°C° 0 mm 4 mps 720 mmHg 14%
    23:00 +32°C° 0 mm 5 mps 720 mmHg 14%

    Day after tomorrow, 20 February, Thursday

    Time Temperature Precipitation Wind Pressure Humidity
    00:00 +30°C° 0 mm 5 mps 720 mmHg 14%
    01:00 +29°C° 0 mm 5 mps 720 mmHg 15%
    02:00 +29°C° 0 mm 5 mps 720 mmHg 16%
    03:00 +28°C° 0 mm 5 mps 720 mmHg 16%
    04:00 +27°C° 0 mm 5 mps 720 mmHg 16%
    05:00 +26°C° 0 mm 5 mps 720 mmHg 17%
    06:00 +27°C° 0 mm 6 mps 721 mmHg 16%
    07:00 +27°C° 0 mm 6 mps 722 mmHg 16%
    08:00 +28°C° 0 mm 7 mps 722 mmHg 15%
    09:00 +32°C° 0 mm 7 mps 722 mmHg 13%
    10:00 +34°C° 0 mm 6 mps 722 mmHg 12%
    11:00 +38°C° 0 mm 6 mps 722 mmHg 10%
    12:00 +39°C° 0 mm 6 mps 721 mmHg 9%
    13:00 +40°C° 0 mm 6 mps 721 mmHg 9%
    14:00 +42°C° 0 mm 5 mps 720 mmHg 8%
    15:00 +42°C° 0 mm 5 mps 719 mmHg 9%
    16:00 +41°C° 0 mm 5 mps 719 mmHg 9%
    17:00 +41°C° 0 mm 4 mps 718 mmHg 9%
    18:00 +37°C° 0 mm 4 mps 719 mmHg 11%
    19:00 +35°C° 0 mm 3 mps 719 mmHg 12%
    20:00 +33°C° 0 mm 3 mps 719 mmHg 14%
    21:00 +31°C° 0 mm 3 mps 720 mmHg 14%
    22:00 +30°C° 0 mm 3 mps 720 mmHg 15%
    23:00 +29°C° 0 mm 4 mps 720 mmHg 15%

    21 February, Friday

    Time Temperature Precipitation Wind Pressure Humidity
    00:00 +29°C° 0 mm 4 mps 720 mmHg 16%
    01:00 +28°C° 0 mm 4 mps 720 mmHg 16%
    02:00 +27°C° 0 mm 4 mps 719 mmHg 16%
    03:00 +27°C° 0 mm 4 mps 719 mmHg 16%
    04:00 +26°C° 0 mm 4 mps 720 mmHg 16%
    05:00 +25°C° 0 mm 4 mps 720 mmHg 15%
    06:00 +26°C° 0 mm 4 mps 721 mmHg 14%
    07:00 +27°C° 0 mm 5 mps 721 mmHg 13%
    08:00 +28°C° 0 mm 6 mps 722 mmHg 11%
    15:00 +42°C° 0 mm 4 mps 720 mmHg 7%
    16:00 +42°C° 0 mm 4 mps 719 mmHg 8%
    17:00 +42°C° 0 mm 3 mps 719 mmHg 8%
    18:00 +38°C° 0 mm 3 mps 720 mmHg 8%
    19:00 +35°C° 0 mm 3 mps 720 mmHg 9%
    20:00 +33°C° 0 mm 3 mps 720 mmHg 10%
    21:00 +31°C° 0 mm 3 mps 720 mmHg 10%
    22:00 +30°C° 0 mm 4 mps 721 mmHg 10%
    23:00 +29°C° 0 mm 4 mps 721 mmHg 10%

    22 February, Saturday

    Time Temperature Precipitation Wind Pressure Humidity
    00:00 +29°C° 0 mm 4 mps 720 mmHg 10%
    01:00 +28°C° 0 mm 4 mps 720 mmHg 10%
    02:00 +28°C° 0 mm 4 mps 720 mmHg 9%
    03:00 +27°C° 0 mm 4 mps 720 mmHg 10%
    04:00 +27°C° 0 mm 4 mps 720 mmHg 11%
    05:00 +26°C° 0 mm 4 mps 720 mmHg 12%
    06:00 +27°C° 0 mm 5 mps 721 mmHg 12%
    07:00 +27°C° 0 mm 6 mps 722 mmHg 12%
    08:00 +28°C° 0 mm 6 mps 723 mmHg 12%
    09:00 +32°C° 0 mm 6 mps 723 mmHg 10%
    10:00 +34°C° 0 mm 6 mps 723 mmHg 9%
    11:00 +37°C° 0 mm 5 mps 723 mmHg 8%
    12:00 +39°C° 0 mm 5 mps 722 mmHg 7%
    13:00 +41°C° 0 mm 4 mps 721 mmHg 7%
    14:00 +42°C° 0 mm 4 mps 720 mmHg 6%
    15:00 +42°C° 0 mm 4 mps 720 mmHg 6%
    16:00 +42°C° 0 mm 4 mps 720 mmHg 6%
    17:00 +40°C° 0 mm 3 mps 720 mmHg 6%
    18:00 +38°C° 0 mm 3 mps 720 mmHg 7%
    19:00 +35°C° 0 mm 3 mps 720 mmHg 8%
    20:00 +31°C° 0 mm 3 mps 721 mmHg 9%
    21:00 +31°C° 0 mm 3 mps 721 mmHg 9%
    22:00 +30°C° 0 mm 3 mps 721 mmHg 9%
    23:00 +29°C° 0 mm 4 mps 721 mmHg 9%

    23 February, Sunday

    Time Temperature Precipitation Wind Pressure Humidity
    00:00 +28°C° 0 mm 4 mps 721 mmHg 9%
    01:00 +28°C° 0 mm 4 mps 720 mmHg 10%
    02:00 +27°C° 0 mm 4 mps 720 mmHg 10%
    03:00 +27°C° 0 mm 4 mps 720 mmHg 11%
    04:00 +26°C° 0 mm 4 mps 720 mmHg 11%
    05:00 +25°C° 0 mm 4 mps 721 mmHg 12%
    06:00 +26°C° 0 mm 5 mps 721 mmHg 11%
    07:00 +27°C° 0 mm 5 mps 722 mmHg 10%
    08:00 +28°C° 0 mm 6 mps 723 mmHg 10%
    09:00 +30°C° 0 mm 6 mps 723 mmHg 9%
    10:00 +34°C° 0 mm 6 mps 723 mmHg 8%
    11:00 +36°C° 0 mm 5 mps 723 mmHg 7%
    12:00 +39°C° 0 mm 5 mps 722 mmHg 7%
    13:00 +40°C° 0 mm 4 mps 721 mmHg 6%
    14:00 +42°C° 0 mm 4 mps 720 mmHg 6%
    15:00 +41°C° 0 mm 4 mps 720 mmHg 6%
    16:00 +41°C° 0 mm 4 mps 719 mmHg 6%
    17:00 +41°C° 0 mm 4 mps 719 mmHg 6%
    18:00 +37°C° 0 mm 3 mps 719 mmHg 7%
    19:00 +34°C° 0 mm 3 mps 720 mmHg 8%
    20:00 +31°C° 0 mm 3 mps 720 mmHg 9%
    21:00 +30°C° 0 mm 3 mps 720 mmHg 10%
    22:00 +29°C° 0 mm 3 mps 720 mmHg 10%
    23:00 +29°C° 0 mm 3 mps 720 mmHg 10%
    Show more